sat.trackr.live / text

‹ back to catalog

STARLINK-36074

NORAD 66900 · 2025-283Y

PAYLOAD ACTIVE UNKNOWN

§ Identity

Operator
Country
US
Launch date
2025-12-04
Launch site
AFWTR
Launch vehicle
Mass (kg)
RCS (m²)

Purposes: comms

External: N2YO · Heavens-Above · Gunter

§ Orbital elements

Epoch: 2026-09-20T04:28:44.306688Z

Period
93.85 min
Inclination
53.1574°
Eccentricity
0.0001363
Mean motion
15.34413205 rev/d
Perigee alt
461.7 km
Apogee alt
463.6 km
Semi-major
6,840.8 km
B*
7.0689e-4
RAAN
197.1252°
Arg perigee
98.5973°
Mean anomaly
261.5184°
Rev number
4,567

§ Raw data

STARLINK-360741 66900U 25283Y   26263.18662392  .00023592  00000+0  70689-3 0  99902 66900  53.1574 197.1252 0001363  98.5973 261.5184 15.34413205 45676

JSON: /api/v1/satellites/66900 · /tle

For live sub-satellite position, see the globe view (requires WebGL).

§ Visibility from observer

Set your observer location to see the next 7 days of passes ≥ 10°. The values pass through the URL so the page stays shareable.

No JS? Fill the form by hand. The geolocation button needs JavaScript.